User: anonymous   Login
Location: Unspecified
(0.0000°N, 0.0000°E)
Time: 01:49:03
(UTC+00:00)
Language:

TBA - TO BE ASSIGNED - Orbit

View from above orbital plane
View from above orbital plane
View from above satellite
View from above satellite

Ground track
Ground track

The orbit is defined by the following mean orbital elements,

1 67959U          26145.19304925 +.00000000 +00000-0 +65956-3 0 00004
2 67959  43.0013 118.4340 0001794 283.1699  76.8953 15.27598751    07
Epoch (UTC): 25 May 2026 04:37:59
Eccentricity: 0.0001794
inclination: 43.0013°
perigee height: 482 km
apogee height: 484 km
right ascension of ascending node: 118.4340°
argument of perigee: 283.1699°
revolutions per day: 15.27598751
mean anomaly at epoch: 76.8953°

The dashed part of the orbit path shows where the satellite is in the earth's shadow,  

DLR